User: anonymous   Login
Location: Myra
(43.4160°N, 88.0960°W)
Time: 03:16:50
(UTC-05:00)
Language:

SL-8 R/B - Orbit

View from above orbital plane
View from above orbital plane
View from above satellite
View from above satellite

Ground track
Ground track

The orbit data is extracted from the following two-line orbital elements,

1 33066U 08031G   14304.15525034  .00000495  00000-0  11675-3 0  9314
2 33066 048.4435 279.5254 0007544 016.7866 070.9806 14.68939358341583
Epoch (UTC): 31 October 2014 03:43:33
Eccentricity: 0.0007544
inclination: 48.4435°
perigee height: 659 km
apogee height: 670 km
right ascension of ascending node: 279.5254°
argument of perigee: 16.7866°
revolutions per day: 14.68939358
mean anomaly at epoch: 70.9806°
orbit number at epoch: 34158

The dashed part of the orbit path shows where the satellite is in the earth's shadow,  

DLR